Location: *
(42.3442°N, 9.2072°E)
Time: 22:34:19
(UTC+00:00)

COSMOS 2455 - Pass Details

Date: 09 April 2020
Orbit: 899 x 910 km, 67.1° (Epoch: 05 June)

Event Time Altitude Azimuth Distance (km) Brightness Sun altitude
Rises 18:16:59 0° 336° (NNW) 3,544 6.6 -4.2°
Reaches altitude 10° 18:19:53 10° 348° (NNW) 2,600 5.6 -4.7°
Maximum altitude 18:25:01 28° 46° (NE) 1,632 4.0 -5.6°
Drops below altitude 10° 18:30:08 10° 105° (ESE) 2,593 4.5 -6.5°
Enters shadow 18:30:45 - 108° (ESE) 2,782 4.7 -6.6°
